Hourly Data Report for October 06, 2015

All times are specified in Local Standard Time (LST). Add 1 hour to adjust for Daylight Saving Time where and when it is observed.

ARVIAT A
NUNAVUT

61°05'38.000" N
94°04'18.000" W
10.40 m
2300427
71174
YEK

Download Data

Hourly Data (October 2015)
Hourly Data Report for October 6, 2015
Temp Definition
°C
Dew Point Temp Definition
°C
Rel Hum Definition
%
Wind Dir Definition
10's deg

Wind Spd Definition
km/h
Visibility Definition
km
Stn Press Definition
kPa
Hmdx Definition


Wind Chill Definition


Weather Definition


TIME
00:00 Legend Double Dagger 4.0 3.7 98 11 28 16.1 100.55     Rain
01:00 Legend Double Dagger 4.0 3.7 98 11 30 8.1 100.47     Rain,Fog
02:00 Legend Double Dagger 3.8 3.4 97 10 34 16.1 100.41     Rain
03:00 Legend Double Dagger 3.5 2.8 95 10 30 16.1 100.38     Rain
04:00 Legend Double Dagger 3.4 2.6 95 10 28 12.9 100.35     Rain
05:00 Legend Double Dagger 3.4 2.8 96 8 32 14.5 100.35     Rain
06:00 Legend Double Dagger 3.0 2.4 96 8 28 12.9 100.40     Rain
07:00 Legend Double Dagger 2.4 2.0 97 6 34 11.3 100.45     Rain
08:00 Legend Double Dagger 2.4 2.0 97 4 30 12.9 100.52     Rain
09:00 Legend Double Dagger 2.4 2.1 98 5 26 16.1 100.60     Rain
10:00 Legend Double Dagger 2.8 2.2 96 4 28 16.1 100.68     Rain
11:00 Legend Double Dagger 2.4 2.0 97 3 30 16.1 100.76     Rain
12:00 Legend Double Dagger 2.6 2.0 96 1 30 16.1 100.84     Rain
13:00 Legend Double Dagger 3.1 2.1 93 1 28 16.1 100.91     LegendNANA
14:00 Legend Double Dagger 3.8 1.5 85 36 28 16.1 100.98     LegendNANA
15:00 Legend Double Dagger 3.1 1.8 91 34 26 16.1 101.03     LegendNANA
16:00 Legend Double Dagger 4.2 1.7 84 34 22 16.1 101.08     LegendNANA
17:00 Legend Double Dagger 2.8 1.8 93 33 26 16.1 101.15     LegendNANA
18:00 Legend Double Dagger 2.4 0.9 90 33 26 16.1 101.20     LegendNANA
19:00 Legend Double Dagger 2.1 0.5 89 33 21 16.1 101.23     LegendNANA
20:00 Legend Double Dagger 1.2 0.2 93 32 18 16.1 101.23     LegendNANA
21:00 Legend Double Dagger 0.7 0.0 95 30 17 16.1 101.24     LegendNANA
22:00 Legend Double Dagger 0.3 0.0 98 29 11 16.1 101.23     LegendNANA
23:00 Legend Double Dagger 0.4 0.0 97 30 17 16.1 101.23     LegendNANA

Notes on Data Quality.

Legend

  • E = Estimated
  • M = Missing
  • NA = Not Available
  • ‡ = Partner data that is not subject to review by the National Climate Archives
Date modified: